Weather History for Debrecen, Hungary

Change the Weather History Date:

Friday, November 23, 2012

  Actual Average Record
Temperature  
Mean Temperature 41 °F -  
Max Temperature 44 °F 39 °F - ()
Min Temperature 38 °F 29 °F - ()
Degree Days  
Heating Degree Days 24    
Moisture  
Dew Point 40 °F    
Average Humidity 93    
Maximum Humidity 100    
Minimum Humidity 87    
Precipitation  
Precipitation 0.02 in 0.06 in - ()
Sea Level Pressure  
Sea Level Pressure 30.26 in    
Wind  
Wind Speed 2 mph ()    
Max Wind Speed 4 mph    
Max Gust Speed -    
Visibility 1.6 miles    
Events Fog , Rain    
T = Trace of Precipitation, MM = Missing Value Source: Averaged Metar Reports

Daily Weather History Graph

Daily Weather History Graph

Search for Another Location

Airport:

Trip Planner

Search our weather history database for the weather conditions in past years. The results will help you decide how hot, cold, wet, or windy it might be!

Date:

Astronomy

Nov. 23, 2012 Rise Set
Actual Time 6:50 AM CET 3:49 PM CET
Civil Twilight 6:15 AM CET 4:23 PM CET
Nautical Twilight 5:37 AM CET 5:01 PM CET
Astronomical Twilight 5:01 AM CET 5:38 PM CET
Moon 1:11 PM CET (11/23) 1:32 AM CET (11/23)
Length of Visible Light 10h 08m
Length of Day
8h 59m
Waxing Gibbous, 77% of the Moon is Illuminated
Nov 23
Waxing Gibbous
Nov 28
Full
Dec 6
Last Quarter
Dec 13
New
Dec 20
First Quarter

Hourly Weather History & Observations

Time (CET) Temp. Windchill Dew Point Humidity Pressure Visibility Wind Dir Wind Speed Gust Speed Precip Events Conditions
1:00 AM 41 °F - 40 °F 92% 30.31 in - East 2.2 mph - -  
3:57 AM 39.2 °F - 37.4 °F 93% 30.27 in - ENE 2.3 mph - N/A   Unknown
5:15 AM 39.2 °F - 37.4 °F 93% 30.27 in 4.3 mi NE 2.3 mph - N/A   Overcast
5:45 AM 39.2 °F 37.0 °F 37.4 °F 93% 30.27 in 4.3 mi East 3.5 mph - N/A   Overcast
6:00 AM - - - N/A% - 3.7 mi Variable 3.5 mph - N/A   Overcast
6:15 AM 39.2 °F - 37.4 °F 93% 30.27 in 3.7 mi East 2.3 mph - N/A   Overcast
6:26 AM 39.2 °F - 37.4 °F 93% 30.30 in 1.6 mi ENE 2.3 mph - N/A   Overcast
6:45 AM 39.2 °F - 37.4 °F 93% 30.27 in 1.6 mi East 2.3 mph - N/A   Overcast
7:00 AM 39 °F - 38 °F 94% 30.28 in 2 mi East 2.2 mph - -   Mist
7:12 AM 39.2 °F - 37.4 °F 93% 30.30 in 1.7 mi ESE 2.3 mph - N/A   Overcast
7:15 AM 39.2 °F - 37.4 °F 93% 30.27 in 1.7 mi ESE 1.2 mph - N/A   Overcast
7:45 AM 39.2 °F - 37.4 °F 93% 30.27 in 1.7 mi East 1.2 mph - N/A   Overcast
8:15 AM 39.2 °F - 37.4 °F 93% 30.27 in 1.7 mi ESE 2.3 mph - N/A   Overcast
8:45 AM 39.2 °F - 39.2 °F 100% 30.27 in 1.6 mi East 2.3 mph - N/A   Overcast
9:00 AM - - - N/A% - 0.9 mi Variable 3.5 mph - N/A   Overcast
9:15 AM 39.2 °F - 39.2 °F 100% 30.27 in 1.2 mi East 2.3 mph - N/A   Overcast
9:45 AM 41.0 °F - 39.2 °F 93% 30.27 in 1.2 mi East 1.2 mph - N/A   Overcast
10:15 AM 41.0 °F - 39.2 °F 93% 30.27 in 1.4 mi Calm Calm - N/A   Overcast
10:45 AM 41.0 °F - 41.0 °F 100% 30.27 in 1.4 mi South 1.2 mph - N/A   Overcast
11:15 AM 42.8 °F - 41.0 °F 93% 30.27 in 1.2 mi South 1.2 mph - N/A   Overcast
11:45 AM 42.8 °F - 41.0 °F 93% 30.27 in 1.2 mi SSW 1.2 mph - N/A   Overcast
12:00 PM - - - N/A% - 0.9 mi Variable 3.5 mph - N/A   Overcast
12:15 PM 42.8 °F - 41.0 °F 93% 30.24 in 1.2 mi Calm Calm - N/A   Overcast
12:45 PM 44.6 °F - 41.0 °F 87% 30.24 in 1.1 mi Calm Calm - N/A Rain Light Rain
1:00 PM 44 °F - 42 °F 88% 30.26 in 1 mi Calm Calm - - Rain Light Rain
1:15 PM 44.6 °F - 42.8 °F 93% 30.24 in 1.2 mi WSW 2.3 mph - N/A Rain Light Rain
1:45 PM 44.6 °F - 42.8 °F 93% 30.24 in 1.1 mi West 2.3 mph - N/A Rain Light Rain
2:15 PM 44.6 °F - 42.8 °F 93% 30.24 in 1.1 mi West 2.3 mph - N/A   Overcast
2:45 PM 44.6 °F - 42.8 °F 93% 30.24 in 1.1 mi WSW 2.3 mph - N/A Rain Light Rain
3:15 PM 44.6 °F - 42.8 °F 93% 30.24 in 1.0 mi West 2.3 mph - N/A Rain Light Rain
3:45 PM 44.6 °F - 42.8 °F 93% 30.24 in 1.0 mi NNW 1.2 mph - N/A Rain Light Rain
3:53 PM 44.6 °F - 42.8 °F 93% 30.27 in 0.5 mi Calm Calm - N/A Rain Light Rain
4:00 PM - - - N/A% - 0.9 mi Variable 3.5 mph - N/A   Overcast
4:15 PM 44.6 °F - 42.8 °F 93% 30.24 in 0.4 mi Calm Calm - N/A Fog Fog
4:45 PM 44.6 °F - 42.8 °F 93% 30.24 in 1.0 mi East 1.2 mph - N/A   Overcast
6:00 PM - - - N/A% - - North - - N/A   Unknown
7:00 PM 43 °F - 42 °F 93% 30.26 in - South 2.2 mph - -